Temperature
19 19 19 19 19 19 18 18 18 18 18 18 18 18 18 18 18 18 18 18 18 18 19 19 19 19 19 19 19 18 18 18 18 18 18 18 18 18 18 18 17 17 17
19 18 19 19 19 19 19 19 18 18 18 18 18 18 18 18 18 18 18 18 19 19 19 19 19 19 19 19 18 18 18 18 18 18 18 18 18 18 18 18 17 17 17
19 18 18 19 19 18 19 19 19 19 18 18 18 18 18 18 18 18 18 18 18 19 19 19 19 18 18 18 18 18 18 18 18 18 18 17 17 18 18 18 17 17 17
19 19 18 18 18 18 18 19 18 18 18 18 18 18 18 18 18 18 18 18 18 19 19 19 18 18 18 18 18 18 18 18 18 18 17 17 17 18 18 17 17 17 17
18 18 18 18 18 18 18 18 18 18 18 18 18 18 18 18 18 18 18 18 18 18 18 18 18 18 18 18 18 18 18 18 18 18 17 17 17 17 17 17 17 17 17
19 18 18 18 18 18 18 18 18 18 18 18 18 18 18 18 18 18 18 18 18 18 18 18 18 18 18 18 18 18 18 18 18 17 17 17 17 17 17 17 17 17 17
19 18 18 18 18 18 18 18 18 18 18 18 18 18 18 18 18 18 18 18 18 18 18 18 18 18 18 18 18 18 18 18 17 17 17 17 17 17 17 17 17 17 17
19 18 18 18 18 18 18 18 18 18 18 18 18 18 18 18 18 18 18 18 18 18 18 18 18 18 18 18 18 18 18 18 17 17 17 17 17 17 17 17 17 17 17
19 18 18 18 18 18 18 18 18 18 18 18 18 18 18 18 18 18 18 18 18 18 18 18 18 18 18 18 18 18 18 18 18 17 17 17 17 17 17 17 17 17 17
19 19 18 19 18 18 18 18 18 18 18 18 18 18 18 18 18 18 18 18 18 18 18 18 18 18 18 18 18 18 18 18 18 18 17 17 18 17 17 17 17 17 17
18 19 19 19 19 18 18 18 18 18 18 18 18 18 18 18 18 18 18 18 18 18 18 18 18 18 18 18 18 18 18 18 18 18 17 17 18 17 17 17 17 17 17
19 19 19 19 19 19 18 18 18 18 18 18 18 18 18 18 18 18 18 18 18 18 18 18 18 18 18 18 18 18 18 18 18 18 17 18 17 17 17 17 17 17 17
19 19 19 19 18 19 18 18 18 18 18 18 18 18 18 18 18 18 18 18 18 18 18 18 18 18 18 18 18 18 18 18 18 18 17 18 17 17 17 17 17 17 17
19 19 19 19 19 18 18 18 18 18 18 18 18 18 18 18 18 18 18 18 18 18 18 18 18 18 18 18 18 18 18 18 18 18 18 18 17 17 17 17 17 17 17
19 19 19 18 18 18 18 18 18 18 18 18 18 18 18 18 18 18 18 18 18 18 18 18 18 18 18 18 18 18 18 18 17 17 17 17 17 17 17 17 17 17 17
19 19 19 18 18 18 18 18 18 18 18 18 18 18 18 18 18 18 18 18 18 18 18 18 18 18 18 18 18 17 17 17 17 17 17 17 17 17 17 17 17 17 17
19 19 19 19 19 18 18 18 18 18 18 18 18 18 18 18 18 18 18 18 18 18 18 18 18 18 18 18 17 17 17 17 17 17 17 17 17 17 17 17 17 17 17
19 19 19 19 19 18 18 18 18 18 18 18 18 18 18 18 18 18 18 18 18 18 18 18 18 18 18 18 18 18 17 17 17 17 17 17 17 17 17 17 17 17 17
19 19 19 19 19 18 18 18 18 18 18 18 18 18 18 18 18 18 18 18 18 18 18 18 18 18 18 18 18 18 17 17 17 17 17 17 17 16 16 17 17 17 16
19 19 19 19 19 18 18 18 18 18 18 18 18 18 18 18 18 18 18 18 18 18 18 18 18 18 18 18 18 18 18 17 17 17 17 17 17 17 17 16 16 16 16
20 19 19 19 19 19 18 18 18 18 18 18 18 18 18 18 18 18 18 18 18 18 18 18 18 18 18 18 18 18 18 18 18 17 17 17 17 17 16 16 16 16 16
20 20 19 19 19 19 19 19 18 18 18 18 18 18 18 18 18 18 18 18 18 18 18 18 18 18 18 18 18 19 19 19 18 18 17 17 17 17 17 16 16 16 16
20 20 20 19 19 19 19 18 18 18 18 18 18 18 18 18 18 18 18 18 18 18 18 18 18 18 18 18 18 18 19 20 19 18 17 17 17 17 17 17 16 16 16
21 20 20 20 20 19 19 19 19 19 19 19 18 18 18 18 18 18 18 18 18 18 18 18 18 18 18 18 18 18 18 18 19 19 18 18 17 17 17 17 17 16 16
21 21 20 20 20 20 19 19 19 19 19 19 18 18 18 18 18 18 18 18 18 18 18 18 18 18 18 18 18 18 18 18 18 18 18 18 18 17 17 17 17 16 16
21 21 20 20 20 20 20 19 19 19 18 18 18 18 18 18 18 18 18 18 18 18 18 18 18 18 18 18 18 18 18 18 18 18 18 18 18 18 17 17 17 16 16
Wind_Speed
5 8 11 10 11 12 12 12 12 12 12 13 13 13 14 14 14 14 15 15 14 13 13 13 12 12 11 11 11 10 10 10 10 11 12 12 11 12 12 12 11 11 12
6 9 12 10 11 11 11 12 12 12 12 13 12 13 13 14 14 14 14 14 13 13 12 12 11 11 11 10 10 9 9 9 9 10 11 11 11 11 10 9 6 10 11
7 9 11 10 11 11 11 11 11 12 12 12 13 13 13 13 13 13 13 13 12 12 11 11 11 10 10 10 9 9 8 7 8 9 8 8 9 10 9 9 10 11 10
6 8 10 11 10 10 10 11 11 11 12 12 13 13 13 13 13 13 12 12 11 11 11 11 11 10 10 9 9 8 7 7 8 8 6 6 7 10 9 9 10 10 10
6 8 10 10 9 9 10 10 11 11 12 12 12 12 12 13 12 12 12 11 11 11 10 10 10 9 9 9 8 7 7 7 7 6 5 5 5 8 9 9 9 9 9
7 7 11 9 9 9 9 10 10 11 11 11 11 11 11 12 12 11 11 11 10 10 10 9 9 9 8 8 7 7 6 5 5 5 5 5 6 8 8 8 8 9 9
7 7 10 10 8 8 9 9 10 10 10 10 10 10 10 11 11 10 10 10 9 9 8 8 8 7 7 7 7 6 4 2 2 4 4 4 6 7 7 7 7 8 8
6 7 9 10 9 8 8 8 9 9 10 9 9 9 10 10 9 9 9 9 8 8 8 7 7 7 7 7 6 5 3 3 3 4 4 5 7 6 6 7 7 8 8
7 7 7 9 10 10 9 8 9 9 9 9 9 9 10 10 9 9 8 7 7 7 7 7 7 6 6 5 5 4 2 3 0 3 4 5 7 7 6 7 7 8 8
6 6 7 7 8 8 10 10 9 9 9 8 9 8 9 9 10 9 8 8 7 7 7 6 6 5 5 5 5 3 2 4 2 3 3 6 7 6 5 6 7 7 7
6 6 6 7 8 8 8 10 10 10 9 8 8 8 7 7 7 8 9 7 6 6 6 5 5 5 5 7 6 3 4 1 3 3 4 7 5 5 5 6 6 6 7
6 6 6 7 7 7 7 8 6 7 7 6 5 5 5 5 5 6 9 7 6 5 6 5 5 6 5 5 6 5 1 2 2 3 5 6 4 4 5 5 5 6 6
6 7 7 7 6 6 6 5 5 5 5 6 5 4 4 4 5 5 5 6 6 6 5 6 5 3 2 2 2 2 2 2 2 3 6 6 3 3 3 4 5 6 6
6 7 6 6 6 6 5 5 4 4 4 4 4 3 3 3 3 3 2 3 3 3 3 2 2 2 2 2 2 2 3 2 3 3 6 5 3 2 3 3 4 5 5
6 6 6 6 6 5 5 3 4 4 4 4 4 3 3 3 3 3 3 2 2 3 3 2 2 2 2 2 2 3 3 3 3 2 5 6 4 3 2 2 3 4 5
6 6 6 6 6 5 4 4 4 4 3 4 4 4 3 3 3 3 3 3 2 2 3 2 2 2 2 2 3 3 2 2 3 2 2 6 5 4 2 2 2 3 3
6 6 6 6 6 5 4 4 4 3 3 3 4 4 3 3 3 2 2 2 2 3 3 2 2 2 2 3 3 2 2 2 2 2 2 2 4 6 5 3 2 2 3
6 6 6 5 6 5 3 3 3 3 3 3 3 4 4 3 2 1 2 2 2 2 2 2 1 2 2 2 2 2 2 2 2 2 2 2 2 3 6 5 3 2 2
6 6 6 5 5 4 4 3 3 3 2 2 3 3 3 3 2 1 2 2 1 2 1 1 3 2 2 2 2 2 1 1 1 2 2 2 3 2 3 6 5 3 2
7 6 6 6 5 4 4 4 3 3 3 3 2 3 2 2 2 1 2 2 1 1 1 2 1 1 1 1 2 2 1 2 1 2 0 2 2 2 2 2 3 5 5
8 7 7 6 6 5 3 3 3 3 3 3 2 3 2 2 2 0 1 1 0 1 1 1 0 2 1 1 0 1 2 2 1 1 1 1 1 2 1 1 1 0 3
9 8 8 7 7 6 4 3 2 2 2 3 2 3 2 1 0 1 1 1 0 1 1 1 0 0 1 1 1 1 1 3 2 2 1 1 0 0 0 1 1 1 2
9 9 8 8 7 7 6 5 4 4 3 3 3 3 2 2 1 1 0 1 0 1 1 1 1 1 1 1 1 2 2 1 1 2 1 1 1 1 1 1 0 0 1
10 10 9 8 8 7 7 6 6 5 4 3 3 3 3 2 2 1 1 1 1 1 1 1 1 1 2 1 1 1 2 2 2 0 2 1 1 0 1 2 1 0 0
10 10 10 9 8 8 7 7 6 5 4 3 3 3 3 2 2 1 1 1 1 1 0 1 0 2 2 2 1 1 1 1 3 3 1 1 0 0 1 1 1 1 0
10 10 10 10 9 9 8 8 7 6 4 4 4 4 4 3 3 3 2 2 2 1 1 1 1 1 1 2 3 2 2 2 2 2 2 2 1 1 1 1 1 1 1
Wind_Direction
96 92 96 97 100 104 107 109 108 105 105 107 113 116 115 115 114 112 112 113 115 117 116 116 116 116 116 116 117 119 120 122 125 129 132 134 135 137 141 146 152 133 130
95 96 100 100 103 106 108 109 107 107 109 108 111 118 117 115 115 113 113 113 115 117 116 116 115 114 115 116 117 119 121 122 127 132 138 140 142 143 146 148 135 125 140
95 102 109 104 106 107 110 110 108 110 112 110 110 116 116 115 115 114 114 112 114 115 114 114 113 113 113 115 115 118 120 123 135 143 156 145 137 143 147 146 137 141 147
98 103 100 104 106 109 111 110 111 111 112 112 111 112 113 117 117 116 115 115 114 114 113 112 113 113 113 112 110 111 110 116 143 165 160 138 138 137 147 146 148 148 150
97 99 103 108 109 110 112 111 112 112 110 113 113 112 112 114 117 118 118 118 116 116 113 112 113 113 114 110 106 106 108 111 140 176 138 140 131 133 150 152 153 155 156
109 105 105 108 110 108 108 110 112 112 110 115 117 114 114 113 116 120 119 120 119 117 115 112 112 111 112 112 112 113 121 137 167 137 138 147 136 138 149 156 159 162 163
102 101 109 109 109 106 109 111 114 114 112 112 115 116 115 114 115 116 118 118 118 117 114 111 109 109 110 111 113 117 129 180 170 124 134 130 126 138 151 158 161 163 166
102 105 112 119 115 114 117 116 114 113 111 109 109 110 115 118 120 119 117 120 120 118 116 113 106 104 105 106 109 116 131 257 146 119 125 119 124 146 154 158 161 164 169
108 114 121 127 129 132 125 117 117 114 110 109 108 110 116 121 123 123 121 119 121 120 116 113 106 102 104 108 110 115 124 287 180 117 121 122 135 152 160 160 165 166 170
104 111 121 123 124 132 129 121 120 118 114 114 113 114 123 134 137 142 139 120 121 119 115 112 112 107 107 117 121 127 188 240 124 110 106 111 133 156 162 160 167 171 176
98 110 117 121 124 127 123 123 130 130 126 135 129 133 152 136 133 144 114 121 125 124 120 120 127 135 144 141 141 173 225 159 91 86 88 101 136 155 157 152 164 175 182
109 114 113 116 118 119 116 119 124 125 125 123 111 122 122 118 124 124 130 140 140 141 145 144 156 179 198 146 151 188 162 101 93 95 92 103 129 146 155 164 170 175 182
111 103 105 108 115 114 115 122 115 114 120 121 114 118 114 128 136 139 139 148 152 165 152 152 177 155 125 108 113 109 72 80 86 89 98 106 114 137 160 172 179 181 181
108 104 103 106 106 101 101 110 121 120 119 113 115 115 112 112 121 118 128 124 148 125 117 132 134 106 91 103 105 76 69 58 64 72 95 106 115 139 163 177 181 184 188
116 114 111 108 106 109 108 115 114 107 100 105 110 111 106 112 107 110 107 109 111 113 132 124 100 100 106 106 89 76 57 57 53 57 97 111 113 122 155 174 179 190 195
127 121 118 121 114 113 114 110 104 102 106 102 104 98 92 95 99 111 120 107 97 92 80 93 100 111 95 91 84 76 58 59 74 51 92 122 127 122 124 143 162 176 185
138 133 134 133 125 124 122 122 113 113 112 105 97 93 91 99 104 114 110 115 96 100 114 117 104 105 109 106 98 94 89 64 76 73 61 71 126 133 130 133 138 155 166
143 141 146 141 131 132 129 120 118 115 109 109 108 107 100 97 108 119 110 100 107 119 117 108 92 83 82 85 92 77 82 87 73 77 81 75 75 103 130 131 132 137 159
153 153 154 144 143 141 137 142 136 124 120 122 119 108 103 107 110 114 90 84 117 94 73 54 80 57 76 72 101 102 83 78 80 86 76 78 85 85 106 133 142 137 144
160 162 162 158 153 154 151 151 148 133 134 131 124 111 115 116 113 113 122 98 95 90 78 64 78 73 76 64 63 77 77 79 83 88 89 100 88 78 74 96 150 162 169
169 170 172 171 162 167 165 172 159 153 150 149 149 120 124 105 98 92 71 108 264 87 44 90 73 132 112 92 151 151 137 128 80 94 79 57 90 79 73 64 17 346 170
179 179 180 180 176 181 170 177 176 159 166 157 148 134 151 132 133 159 93 205 128 137 143 138 185 262 123 143 292 262 176 157 143 84 104 127 65 88 87 82 59 325 301
186 186 186 186 182 187 182 182 172 167 181 169 167 170 173 173 175 359 233 288 271 248 135 177 204 213 212 195 291 308 310 18 108 135 116 64 16 351 332 20 288 231 258
189 185 185 184 187 189 191 195 192 191 189 182 185 168 176 185 191 199 228 255 282 282 143 226 140 236 243 243 184 301 321 342 309 236 174 137 133 302 340 322 328 185 246
189 186 184 184 188 191 195 197 205 206 197 188 184 168 200 185 199 217 211 236 253 253 22 318 158 266 257 290 288 271 275 242 267 289 304 295 221 296 299 294 319 327 326
186 187 186 183 187 191 194 198 204 205 202 196 196 187 197 189 192 199 208 225 239 248 220 249 253 223 280 301 299 296 284 288 284 286 279 277 313 318 323 329 294 305 305
Height
1515 1514 1514 1514 1515 1516 1517 1517 1518 1519 1520 1521 1522 1523 1524 1526 1527 1528 1530 1531 1532 1533 1534 1535 1536 1537 1537 1538 1539 1539 1540 1540 1541 1542 1543 1544 1546 1547 1548 1549 1551 1553 1553
1516 1516 1515 1516 1517 1518 1519 1520 1521 1522 1523 1524 1524 1526 1527 1528 1529 1531 1532 1533 1534 1535 1536 1537 1538 1539 1539 1540 1541 1541 1541 1541 1542 1543 1544 1545 1547 1548 1549 1550 1551 1553 1554
1517 1518 1518 1518 1519 1520 1521 1523 1523 1524 1525 1526 1527 1528 1529 1530 1532 1533 1534 1535 1536 1538 1538 1539 1540 1540 1541 1542 1542 1542 1542 1541 1542 1544 1545 1548 1548 1549 1550 1550 1551 1553 1554
1519 1520 1520 1520 1521 1522 1523 1525 1526 1526 1527 1528 1529 1530 1531 1532 1534 1535 1536 1538 1538 1539 1540 1541 1542 1542 1543 1543 1543 1543 1543 1541 1540 1543 1547 1549 1549 1550 1550 1551 1552 1553 1555
1521 1521 1521 1521 1523 1524 1525 1526 1528 1529 1529 1530 1531 1532 1533 1534 1536 1537 1538 1539 1540 1541 1542 1543 1543 1544 1544 1544 1544 1544 1544 1542 1542 1545 1548 1549 1550 1550 1551 1552 1553 1554 1555
1523 1524 1523 1523 1524 1526 1527 1528 1529 1530 1531 1532 1533 1534 1535 1537 1538 1539 1540 1541 1542 1543 1544 1544 1545 1545 1546 1546 1546 1546 1546 1546 1546 1549 1549 1550 1551 1550 1552 1552 1553 1554 1555
1525 1525 1525 1525 1526 1527 1529 1530 1531 1532 1533 1534 1535 1536 1537 1538 1539 1541 1542 1543 1544 1545 1545 1546 1546 1546 1547 1547 1547 1547 1547 1548 1549 1550 1550 1551 1551 1551 1552 1552 1553 1554 1555
1525 1526 1526 1526 1528 1529 1530 1531 1533 1534 1535 1536 1537 1538 1538 1539 1541 1542 1543 1544 1545 1546 1547 1547 1548 1548 1548 1548 1548 1548 1549 1549 1551 1551 1551 1551 1550 1551 1551 1552 1553 1554 1555
1526 1527 1528 1529 1529 1530 1531 1533 1534 1535 1536 1537 1538 1539 1540 1541 1542 1544 1545 1546 1546 1547 1548 1548 1549 1549 1549 1549 1549 1549 1549 1549 1551 1551 1551 1551 1550 1550 1551 1551 1552 1553 1554
1527 1528 1528 1530 1531 1532 1534 1534 1536 1537 1538 1539 1540 1541 1542 1543 1544 1545 1546 1547 1548 1548 1549 1549 1550 1550 1550 1550 1550 1550 1550 1551 1552 1552 1551 1550 1550 1550 1551 1551 1551 1553 1553
1527 1528 1529 1531 1533 1534 1536 1536 1538 1539 1539 1541 1542 1542 1544 1545 1546 1547 1547 1548 1549 1549 1550 1550 1551 1551 1551 1551 1551 1551 1551 1552 1552 1552 1551 1550 1550 1550 1550 1551 1551 1552 1553
1528 1529 1531 1533 1534 1536 1537 1538 1540 1541 1542 1543 1544 1544 1545 1545 1546 1547 1547 1548 1549 1550 1550 1551 1551 1552 1552 1553 1552 1552 1553 1553 1553 1552 1551 1550 1550 1550 1550 1551 1551 1552 1552
1530 1531 1533 1534 1536 1537 1539 1540 1542 1543 1543 1544 1545 1545 1545 1546 1547 1548 1549 1550 1551 1551 1552 1552 1553 1554 1554 1553 1553 1554 1553 1553 1553 1552 1551 1550 1550 1550 1550 1550 1551 1551 1552
1533 1534 1535 1536 1537 1538 1540 1542 1543 1544 1545 1546 1546 1546 1546 1547 1547 1548 1549 1551 1552 1552 1552 1553 1553 1554 1554 1554 1554 1554 1554 1553 1553 1552 1551 1550 1550 1550 1550 1550 1550 1551 1551
1536 1537 1537 1538 1539 1540 1541 1543 1544 1545 1547 1547 1547 1547 1547 1548 1548 1549 1549 1551 1552 1553 1553 1553 1553 1553 1553 1554 1554 1554 1553 1553 1553 1552 1551 1550 1550 1550 1549 1549 1550 1550 1550
1538 1539 1539 1540 1540 1541 1542 1543 1545 1546 1547 1548 1548 1548 1548 1549 1548 1549 1551 1551 1552 1553 1553 1553 1553 1553 1553 1553 1554 1553 1553 1553 1552 1552 1552 1550 1549 1549 1548 1548 1549 1549 1549
1539 1540 1541 1542 1542 1543 1544 1545 1547 1547 1548 1549 1549 1549 1549 1550 1550 1551 1552 1552 1553 1553 1553 1553 1554 1554 1553 1554 1554 1553 1553 1553 1552 1552 1551 1551 1550 1548 1548 1548 1548 1548 1548
1541 1541 1542 1544 1544 1544 1545 1546 1548 1549 1549 1550 1550 1551 1550 1551 1551 1552 1553 1553 1553 1554 1554 1554 1554 1554 1554 1554 1554 1554 1553 1552 1552 1552 1551 1550 1550 1549 1548 1547 1547 1548 1548
1541 1542 1543 1544 1545 1546 1547 1547 1548 1549 1550 1551 1551 1552 1552 1552 1553 1553 1554 1554 1554 1555 1555 1555 1554 1554 1554 1554 1554 1554 1554 1553 1553 1552 1552 1551 1550 1549 1549 1547 1547 1547 1547
1541 1542 1543 1544 1545 1546 1548 1548 1549 1550 1551 1552 1552 1552 1553 1553 1554 1554 1555 1554 1555 1555 1555 1554 1554 1554 1555 1555 1555 1555 1554 1554 1553 1553 1552 1552 1551 1550 1550 1549 1548 1547 1547
1541 1542 1543 1544 1545 1546 1548 1549 1550 1551 1552 1552 1553 1553 1553 1554 1554 1554 1555 1555 1555 1555 1555 1555 1555 1555 1555 1555 1555 1555 1555 1554 1554 1553 1552 1552 1551 1550 1549 1548 1548 1548 1547
1540 1541 1543 1544 1545 1546 1548 1549 1550 1551 1552 1553 1553 1553 1554 1554 1554 1555 1554 1555 1555 1555 1554 1554 1554 1555 1555 1555 1555 1555 1554 1555 1553 1553 1552 1551 1551 1550 1549 1549 1547 1546 1547
1539 1540 1542 1543 1544 1546 1547 1549 1550 1550 1551 1553 1553 1554 1554 1554 1555 1554 1554 1555 1555 1555 1555 1554 1554 1554 1555 1555 1555 1555 1554 1553 1553 1553 1552 1551 1550 1549 1549 1549 1547 1546 1545
1538 1539 1540 1542 1543 1544 1546 1548 1549 1550 1551 1552 1553 1554 1554 1554 1554 1554 1554 1554 1554 1555 1554 1555 1554 1554 1554 1555 1554 1553 1554 1553 1553 1552 1552 1551 1550 1549 1548 1548 1547 1546 1545
1536 1537 1539 1540 1542 1543 1545 1546 1547 1549 1550 1551 1552 1552 1553 1553 1553 1554 1554 1554 1554 1554 1554 1553 1553 1553 1554 1554 1554 1553 1552 1552 1552 1552 1551 1551 1550 1549 1548 1547 1546 1545 1544
1533 1535 1537 1538 1539 1541 1543 1545 1546 1547 1549 1550 1550 1551 1552 1553 1553 1553 1553 1553 1553 1554 1553 1553 1552 1552 1552 1552 1552 1552 1552 1552 1551 1551 1550 1549 1548 1548 1547 1546 1545 1544 1543